EW1898 Weather Reports


Display with metric or nautical units.
time (UTC)temp
F
wind
direction
speed
MPH
gust
MPH
rain 1hr
in
rain 24hr
in
rain mn
in
humidity
%
barometer
mb
20191115001616 29 285 0.0 0.0 0.00 0.00 0.00 80 1026.1
20191115000102 29 285 0.0 1.0 0.00 0.00 0.00 79 1026.2
20191114234604 29 285 0.0 1.0 0.00 0.00 0.00 80 1025.9
20191114233115 29 285 0.0 1.0 0.00 0.00 0.00 79 1026.6
20191114231632 29 285 0.0 1.0 0.00 0.00 0.00 77 1027.0
20191114230145 29 285 0.0 0.0 0.00 0.00 0.00 77 1027.3
20191114224635 30 285 0.0 0.0 0.00 0.00 0.00 75 1027.5
20191114223126 30 285 0.0 1.0 0.00 0.00 0.00 74 1027.6
20191114221528 30 285 0.0 0.0 0.00 0.00 0.00 72 1027.7
20191114220103 30 285 0.0 0.0 0.00 0.00 0.00 70 1027.9
20191114214546 31 285 0.0 1.0 0.00 0.00 0.00 68 1028.1
20191114213048 32 285 0.0 0.0 0.00 0.00 0.00 66 1028.1
20191114210014 33 285 0.0 0.0 0.00 0.00 0.00 66 1028.3
20191114204511 33 285 0.0 1.0 0.00 0.00 0.00 65 1028.6
20191114203011 33 285 0.0 0.0 0.00 0.00 0.00 64 1028.8
20191114201511 33 285 0.0 1.0 0.00 0.00 0.00 64 1028.9
20191114200005 33 288 0.0 1.0 0.00 0.00 0.00 63 1028.8
20191114194504 33 288 0.0 2.0 0.00 0.00 0.00 61 1029.0
20191114193254 33 239 0.0 2.0 0.00 0.00 0.00 61 1029.1
20191114191648 32 98 0.0 2.0 0.00 0.00 0.00 60 1029.4
20191114190129 32 278 1.0 3.0 0.00 0.00 0.00 60 1029.6
20191114184558 32 286 0.0 2.0 0.00 0.00 0.00 62 1029.7
20191114183132 32 293 0.0 1.0 0.00 0.00 0.00 61 1029.8
20191114181558 31 293 0.0 1.0 0.00 0.00 0.00 62 1030.0
20191114180157 31 293 0.0 1.0 0.00 0.00 0.00 61 1030.0
20191114174621 30 293 0.0 1.0 0.00 0.00 0.00 62 1030.2
20191114173146 29 294 0.0 1.0 0.00 0.00 0.00 62 1030.4
20191114171640 29 295 0.0 1.0 0.00 0.00 0.00 62 1030.7
20191114170117 28 287 0.0 1.0 0.00 0.00 0.00 61 1030.7
20191114164613 27 271 0.0 1.0 0.00 0.00 0.00 62 1031.0
20191114163109 27 1 0.0 4.0 0.00 0.00 0.00 63 1031.1
20191114161616 27 270 0.0 2.0 0.00 0.00 0.00 65 1031.5
20191114160039 26 274 0.0 1.0 0.00 0.00 0.00 64 1031.9
20191114154550 25 267 0.0 2.0 0.00 0.00 0.00 64 1032.4
20191114153106 25 290 0.0 0.0 0.00 0.00 0.00 65 1032.6
20191114151525 24 290 0.0 0.0 0.00 0.00 0.00 65 1032.7
20191114150035 23 290 0.0 0.0 0.00 0.00 0.00 68 1033.0
20191114144519 22 295 0.0 1.0 0.00 0.00 0.00 69 1033.1
20191114143016 22 295 0.0 0.0 0.00 0.00 0.00 73 1033.1
20191114141503 21 295 0.0 1.0 0.00 0.00 0.00 76 1033.2
20191114140002 20 295 0.0 1.0 0.00 0.00 0.00 79 1033.1
20191114134643 20 295 0.0 1.0 0.00 0.00 0.00 80 1033.0
20191114133232 19 295 0.0 2.0 0.00 0.00 0.00 81 1033.1
20191114131744 18 295 0.0 0.0 0.00 0.00 0.00 83 1033.0
20191114130140 18 295 0.0 0.0 0.00 0.00 0.00 84 1032.6
20191114124627 17 295 0.0 0.0 0.00 0.00 0.00 86 1032.5
20191114123148 16 295 0.0 0.0 0.00 0.00 0.00 86 1032.4
20191114121559 15 295 0.0 0.0 0.00 0.00 0.00 86 1032.3
20191114120114 15 295 0.0 0.0 0.00 0.00 0.00 86 1032.4
20191114114653 14 295 0.0 0.0 0.00 0.00 0.00 85 1032.4
20191114113102 14 295 0.0 0.0 0.00 0.00 0.00 84 1032.4
20191114111649 14 295 0.0 0.0 0.00 0.00 0.00 84 1032.5
20191114110108 15 295 0.0 0.0 0.00 0.00 0.00 84 1032.1
20191114104644 16 295 0.0 0.0 0.00 0.00 0.00 84 1032.5
20191114103106 15 295 0.0 0.0 0.00 0.00 0.00 85 1032.4
20191114101709 15 295 0.0 0.0 0.00 0.00 0.00 86 1032.2
20191114100134 15 295 0.0 0.0 0.00 0.00 0.00 85 1032.4
20191114094603 15 295 0.0 0.0 0.00 0.00 0.00 85 1032.4
20191114093134 14 295 0.0 0.0 0.00 0.00 0.00 86 1032.4
20191114091634 13 295 0.0 0.0 0.00 0.00 0.00 85 1032.2
20191114090132 13 295 0.0 0.0 0.00 0.00 0.00 85 1032.3
20191114084622 13 295 0.0 0.0 0.00 0.00 0.00 82 1032.1
20191114083052 13 295 0.0 0.0 0.00 0.00 0.00 83 1031.9
20191114081542 13 295 0.0 0.0 0.00 0.00 0.00 83 1031.8
20191114080053 13 295 0.0 0.0 0.00 0.00 0.00 82 1032.0
20191114074544 14 295 0.0 0.0 0.00 0.00 0.00 81 1032.0
20191114073044 13 295 0.0 0.0 0.00 0.00 0.00 80 1032.0
20191114071601 14 295 0.0 0.0 0.00 0.00 0.00 80 1032.2
20191114070051 14 295 0.0 1.0 0.00 0.00 0.00 79 1032.3
20191114064542 14 295 0.0 0.0 0.00 0.00 0.00 78 1032.2
20191114063040 14 295 0.0 1.0 0.00 0.00 0.00 79 1032.1
20191114061521 14 295 0.0 0.0 0.00 0.00 0.00 78 1031.9
20191114060058 14 295 0.0 0.0 0.00 0.00 0.00 78 1032.0
20191114054518 14 295 0.0 1.0 0.00 0.00 0.00 78 1031.8
20191114053028 15 295 0.0 1.0 0.00 0.00 0.00 76 1031.6
20191114051514 15 295 0.0 1.0 0.00 0.00 0.00 74 1031.5
20191114050011 16 295 0.0 1.0 0.00 0.00 0.00 74 1031.7
20191114044508 16 295 0.0 1.0 0.00 0.00 0.00 73 1031.6
20191114043005 16 295 0.0 1.0 0.00 0.00 0.00 72 1031.3
20191114041513 15 295 0.0 1.0 0.00 0.00 0.00 71 1030.9
20191114040001 15 295 0.0 0.0 0.00 0.00 0.00 72 1031.1
20191114034637 16 295 0.0 1.0 0.00 0.00 0.00 71 1031.2
20191114033140 16 295 0.0 0.0 0.00 0.00 0.00 71 1031.2
20191114031657 16 295 0.0 1.0 0.00 0.00 0.00 69 1031.2
20191114030154 17 295 0.0 1.0 0.00 0.00 0.00 69 1031.0
20191114024739 17 295 0.0 0.0 0.00 0.00 0.00 66 1030.9
20191114023205 17 295 0.0 0.0 0.00 0.00 0.00 67 1030.4
20191114021714 18 295 0.0 0.0 0.00 0.00 0.00 63 1030.6
20191114020118 18 295 0.0 0.0 0.00 0.00 0.00 61 1030.3
20191114014652 19 295 0.0 0.0 0.00 0.00 0.00 60 1030.0
20191114013147 19 295 0.0 2.0 0.00 0.00 0.00 59 1029.9
20191114011725 20 313 0.0 2.0 0.00 0.00 0.00 58 1029.7
20191114010225 20 313 0.0 3.0 0.00 0.00 0.00 57 1029.6
20191114004701 20 295 0.0 2.0 0.00 0.00 0.00 56 1029.7
20191114003156 21 322 1.0 6.0 0.00 0.00 0.00 55 1029.5